DW9439 Weather Reports


Display with metric or nautical units.
time (UTC)temp
F
wind
direction
speed
MPH
gust
MPH
rain 1hr
in
rain 24hr
in
rain mn
in
humidity
%
barometer
mb
20260901205449 96 195 11.0 22.0 0.00 0.00 0.00 29 1015.8
20260901205141 96 219 11.0 22.0 0.00 0.00 0.00 30 1015.8
20260901204840 95 205 10.0 22.0 0.00 0.00 0.00 30 1015.9
20260901204543 95 185 9.0 20.0 0.00 0.00 0.00 31 1015.9
20260901204237 95 193 7.0 20.0 0.00 0.00 0.00 32 1016.0
20260901203934 94 175 7.0 21.0 0.00 0.00 0.00 33 1016.0
20260901203629 94 182 8.0 21.0 0.00 0.00 0.00 32 1016.0
20260901203326 94 159 10.0 21.0 0.00 0.00 0.00 32 1016.1
20260901202602 95 215 9.0 21.0 0.00 0.00 0.00 31 1016.3
20260901202256 94 187 9.0 21.0 0.00 0.00 0.00 31 1016.3
20260901201958 94 184 9.0 21.0 0.00 0.00 0.00 31 1016.5
20260901201649 94 196 9.0 21.0 0.00 0.00 0.00 31 1016.4
20260901201335 94 205 9.0 21.0 0.00 0.00 0.00 31 1016.4
20260901201022 94 184 10.0 21.0 0.00 0.00 0.00 31 1016.5
20260901200719 94 171 12.0 21.0 0.00 0.00 0.00 31 1016.6
20260901200406 95 190 11.0 21.0 0.00 0.00 0.00 31 1016.7
20260901200106 94 196 11.0 21.0 0.00 0.00 0.00 31 1016.7
20260901195752 95 207 10.0 19.0 0.00 0.00 0.00 31 1016.8
20260901195449 95 201 11.0 19.0 0.00 0.00 0.00 30 1016.8
20260901195145 95 209 11.0 19.0 0.00 0.00 0.00 30 1016.8
20260901194841 94 225 10.0 19.0 0.00 0.00 0.00 30 1016.9
20260901194543 94 215 9.0 19.0 0.00 0.00 0.00 29 1017.0
20260901194239 94 232 8.0 19.0 0.00 0.00 0.00 30 1017.0
20260901193514 95 222 13.0 20.0 0.00 0.00 0.00 28 1017.3
20260901193209 95 235 13.0 20.0 0.00 0.00 0.00 29 1017.3
20260901191554 93 219 11.0 23.0 0.00 0.00 0.00 29 1017.3
20260901191242 92 205 9.0 23.0 0.00 0.00 0.00 31 1017.4
20260901190933 92 176 9.0 23.0 0.00 0.00 0.00 31 1017.4
20260901190623 92 191 11.0 24.0 0.00 0.00 0.00 30 1017.4
20260901190321 93 169 12.0 24.0 0.00 0.00 0.00 30 1017.4
20260901185606 94 193 14.0 24.0 0.00 0.00 0.00 29 1017.5
20260901185306 94 208 15.0 24.0 0.00 0.00 0.00 29 1017.6
20260901184952 94 183 14.0 24.0 0.00 0.00 0.00 29 1017.7
20260901184641 93 179 12.0 22.0 0.00 0.00 0.00 29 1017.6
20260901184342 93 184 12.0 22.0 0.00 0.00 0.00 31 1017.7
20260901184038 94 184 12.0 22.0 0.00 0.00 0.00 29 1017.6
20260901183730 94 186 13.0 24.0 0.00 0.00 0.00 28 1017.7
20260901183429 94 201 14.0 24.0 0.00 0.00 0.00 30 1017.8
20260901182703 94 213 11.0 24.0 0.00 0.00 0.00 29 1017.9
20260901182353 94 184 10.0 24.0 0.00 0.00 0.00 30 1017.9
20260901182051 94 188 11.0 24.0 0.00 0.00 0.00 30 1018.0
20260901181739 93 182 11.0 23.0 0.00 0.00 0.00 30 1018.0
20260901181431 94 183 13.0 23.0 0.00 0.00 0.00 29 1018.0
20260901181134 94 192 14.0 23.0 0.00 0.00 0.00 29 1018.1
20260901180823 94 211 15.0 23.0 0.00 0.00 0.00 29 1018.0
20260901180519 94 181 14.0 23.0 0.00 0.00 0.00 29 1018.0
20260901175746 93 213 13.0 21.0 0.00 0.00 0.00 31 1018.1
20260901175443 93 179 13.0 21.0 0.00 0.00 0.00 30 1018.1
20260901174721 94 190 14.0 25.0 0.00 0.00 0.00 30 1018.2
20260901174002 94 188 15.0 25.0 0.00 0.00 0.00 28 1018.2
20260901173652 94 209 14.0 25.0 0.00 0.00 0.00 27 1018.3
20260901173353 94 196 14.0 25.0 0.00 0.00 0.00 29 1018.3
20260901173045 94 202 14.0 25.0 0.00 0.00 0.00 28 1018.3
20260901172745 94 188 15.0 25.0 0.00 0.00 0.00 30 1018.4
20260901172440 94 186 14.0 25.0 0.00 0.00 0.00 28 1018.5
20260901172143 94 223 13.0 23.0 0.00 0.00 0.00 29 1018.5
20260901171845 93 200 13.0 23.0 0.00 0.00 0.00 31 1018.5
20260901171542 93 225 12.0 20.0 0.00 0.00 0.00 32 1018.4
20260901171237 92 218 12.0 20.0 0.00 0.00 0.00 33 1018.6
20260901170933 92 233 13.0 20.0 0.00 0.00 0.00 34 1018.5
20260901170214 92 208 12.0 20.0 0.00 0.00 0.00 35 1018.7
20260901165909 92 203 11.0 19.0 0.00 0.00 0.00 34 1018.6
20260901165556 91 213 11.0 18.0 0.00 0.00 0.00 37 1018.6
20260901165253 91 219 11.0 18.0 0.00 0.00 0.00 37 1018.7
20260901164938 90 219 11.0 18.0 0.00 0.00 0.00 39 1018.7
20260901164227 89 215 9.0 18.0 0.00 0.00 0.00 40 1018.8
20260901163450 88 221 8.0 15.0 0.00 0.00 0.00 42 1018.8
20260901162256 87 226 9.0 14.0 0.00 0.00 0.00 45 1019.0
20260901161534 86 226 7.0 12.0 0.00 0.00 0.00 46 1019.0
20260901160812 85 224 7.0 12.0 0.00 0.00 0.00 47 1019.0
20260901160513 85 225 7.0 12.0 0.00 0.00 0.00 49 1019.0
20260901160204 85 224 7.0 12.0 0.00 0.00 0.00 49 1019.0
20260901155903 84 229 7.0 11.0 0.00 0.00 0.00 50 1019.1
20260901155123 83 227 6.0 11.0 0.00 0.00 0.00 52 1019.0
20260901154401 82 227 6.0 10.0 0.00 0.00 0.00 53 1019.3
20260901153629 82 226 6.0 12.0 0.00 0.00 0.00 54 1019.3
20260901152907 81 225 7.0 12.0 0.00 0.00 0.00 55 1019.4
20260901152611 81 225 8.0 12.0 0.00 0.00 0.00 55 1019.4
20260901152312 80 226 7.0 12.0 0.00 0.00 0.00 56 1019.4
20260901152014 80 227 7.0 12.0 0.00 0.00 0.00 56 1019.2
20260901151704 80 235 6.0 11.0 0.00 0.00 0.00 58 1019.3
20260901151354 79 237 6.0 11.0 0.00 0.00 0.00 58 1019.2
20260901150631 78 241 6.0 10.0 0.00 0.00 0.00 60 1019.3
20260901150319 78 241 6.0 10.0 0.00 0.00 0.00 60 1019.3
20260901150007 78 241 6.0 10.0 0.00 0.00 0.00 61 1019.4
20260901145701 77 242 7.0 10.0 0.00 0.00 0.00 62 1019.4
20260901145403 77 242 7.0 10.0 0.00 0.00 0.00 61 1019.5
20260901145046 77 244 6.0 10.0 0.00 0.00 0.00 61 1019.5
20260901144738 77 245 6.0 10.0 0.00 0.00 0.00 62 1019.4
20260901144440 77 246 7.0 10.0 0.00 0.00 0.00 62 1019.4
20260901144129 76 246 6.0 10.0 0.00 0.00 0.00 62 1019.5
20260901143830 76 248 6.0 10.0 0.00 0.00 0.00 63 1019.5
20260901143531 76 254 5.0 10.0 0.00 0.00 0.00 64 1019.4
20260901142807 75 258 5.0 9.0 0.00 0.00 0.00 65 1019.4
20260901142508 75 259 5.0 9.0 0.00 0.00 0.00 65 1019.6
20260901142205 75 261 5.0 9.0 0.00 0.00 0.00 66 1019.4
20260901141900 74 261 6.0 9.0 0.00 0.00 0.00 67 1019.6
20260901141550 74 269 5.0 9.0 0.00 0.00 0.00 67 1019.4
20260901141235 73 273 5.0 9.0 0.00 0.00 0.00 69 1019.4
20260901140925 73 290 4.0 9.0 0.00 0.00 0.00 70 1019.4
20260901140151 71 318 4.0 8.0 0.00 0.00 0.00 75 1019.4
20260901135855 70 323 4.0 8.0 0.00 0.00 0.00 77 1019.4
20260901135547 70 324 4.0 8.0 0.00 0.00 0.00 79 1019.4
20260901135233 69 327 3.0 6.0 0.00 0.00 0.00 82 1019.2
20260901134932 68 327 2.0 6.0 0.00 0.00 0.00 84 1019.4
20260901134629 67 327 1.0 6.0 0.00 0.00 0.00 85 1019.4
20260901133441 65 327 0.0 1.0 0.00 0.00 0.00 87 1019.5
20260901133131 65 327 0.0 1.0 0.00 0.00 0.00 88 1019.5
20260901132407 64 327 1.0 3.0 0.00 0.00 0.00 88 1019.6
20260901131649 64 327 1.0 3.0 0.00 0.00 0.00 89 1019.6
20260901131337 63 327 1.0 3.0 0.00 0.00 0.00 90 1019.7
20260901130614 62 327 0.0 3.0 0.00 0.00 0.00 90 1019.6
20260901130302 62 327 1.0 3.0 0.00 0.00 0.00 90 1019.6
20260901130005 62 327 1.0 3.0 0.00 0.00 0.00 90 1019.5
20260901125653 62 327 1.0 3.0 0.00 0.00 0.00 90 1019.6
20260901125354 61 327 2.0 4.0 0.00 0.00 0.00 90 1019.5
20260901125057 61 327 2.0 4.0 0.00 0.00 0.00 90 1019.5
20260901124744 61 327 2.0 4.0 0.00 0.00 0.00 90 1019.5
20260901124436 61 327 3.0 4.0 0.00 0.00 0.00 90 1019.5
20260901122849 61 327 3.0 6.0 0.00 0.00 0.00 90 1019.5
20260901122544 61 327 3.0 6.0 0.00 0.00 0.00 90 1019.4
20260901122242 60 327 3.0 6.0 0.00 0.00 0.00 89 1019.4
20260901121934 60 327 4.0 7.0 0.00 0.00 0.00 89 1019.4
20260901121632 60 327 4.0 7.0 0.00 0.00 0.00 89 1019.3
20260901121330 60 327 4.0 7.0 0.00 0.00 0.00 89 1019.3
20260901121031 60 327 4.0 7.0 0.00 0.00 0.00 89 1019.2
20260901120720 60 327 3.0 7.0 0.00 0.00 0.00 89 1019.1
20260901120421 60 327 2.0 7.0 0.00 0.00 0.00 88 1019.2
20260901120110 60 327 1.0 6.0 0.00 0.00 0.00 87 1019.1
20260901115804 60 327 0.0 3.0 0.00 0.00 0.00 87 1019.0
20260901115455 60 327 0.0 3.0 0.00 0.00 0.00 87 1019.0
20260901115151 60 327 0.0 3.0 0.00 0.00 0.00 87 1019.0
20260901114846 60 327 1.0 0.0 0.00 0.00 0.00 87 1019.0
20260901114534 60 327 1.0 4.0 0.00 0.00 0.00 86 1019.0
20260901114235 61 327 1.0 3.0 0.00 0.00 0.00 86 1019.0
20260901113927 61 327 0.0 2.0 0.00 0.00 0.00 88 1018.9
20260901113624 61 327 0.0 2.0 0.00 0.00 0.00 87 1018.8
20260901113328 60 327 0.0 2.0 0.00 0.00 0.00 87 1018.9
20260901113024 60 327 0.0 2.0 0.00 0.00 0.00 87 1018.8
20260901112710 60 327 0.0 0.0 0.00 0.00 0.00 86 1018.7
20260901112405 60 327 0.0 3.0 0.00 0.00 0.00 86 1018.8
20260901112054 60 327 0.0 1.0 0.00 0.00 0.00 86 1018.9
20260901111321 61 327 0.0 2.0 0.00 0.00 0.00 86 1018.9
20260901111013 61 327 0.0 1.0 0.00 0.00 0.00 86 1018.8
20260901110703 61 327 0.0 0.0 0.00 0.00 0.00 86 1018.8
20260901110355 61 327 1.0 0.0 0.00 0.00 0.00 86 1018.8
20260901110056 61 327 1.0 0.0 0.00 0.00 0.00 86 1018.8
20260901105748 61 327 2.0 5.0 0.00 0.00 0.00 86 1018.9
20260901105441 61 327 2.0 4.0 0.00 0.00 0.00 86 1018.8
20260901105132 61 327 2.0 6.0 0.00 0.00 0.00 85 1018.7
20260901104413 62 327 0.0 4.0 0.00 0.00 0.00 84 1018.7
20260901104117 62 327 0.0 1.0 0.00 0.00 0.00 85 1018.6
20260901103815 62 327 0.0 0.0 0.00 0.00 0.00 84 1018.5
20260901103510 62 327 0.0 0.0 0.00 0.00 0.00 84 1018.6
20260901103201 62 327 0.0 0.0 0.00 0.00 0.00 83 1018.7
20260901102025 63 327 0.0 0.0 0.00 0.00 0.00 83 1018.6
20260901100847 64 327 0.0 1.0 0.00 0.00 0.00 82 1018.7
20260901100544 64 327 0.0 1.0 0.00 0.00 0.00 82 1018.9
20260901100243 64 327 0.0 0.0 0.00 0.00 0.00 83 1018.9
20260901095944 64 327 0.0 1.0 0.00 0.00 0.00 83 1018.9
20260901095634 64 327 0.0 1.0 0.00 0.00 0.00 82 1019.0
20260901095329 64 327 0.0 4.0 0.00 0.00 0.00 81 1019.0
20260901095016 64 327 0.0 4.0 0.00 0.00 0.00 81 1019.0
20260901094717 64 327 0.0 2.0 0.00 0.00 0.00 82 1018.9
20260901094421 64 327 0.0 1.0 0.00 0.00 0.00 82 1018.9
20260901094111 64 327 0.0 1.0 0.00 0.00 0.00 82 1019.0
20260901093812 64 327 0.0 0.0 0.00 0.00 0.00 82 1019.1
20260901093502 64 327 0.0 3.0 0.00 0.00 0.00 81 1019.0
20260901093157 64 327 0.0 3.0 0.00 0.00 0.00 80 1019.0
20260901092845 65 327 0.0 2.0 0.00 0.00 0.00 80 1019.0
20260901092532 65 327 0.0 0.0 0.00 0.00 0.00 80 1019.0
20260901092228 64 327 0.0 0.0 0.00 0.00 0.00 80 1018.9
20260901091917 65 327 0.0 0.0 0.00 0.00 0.00 79 1019.0
20260901091615 65 327 0.0 0.0 0.00 0.00 0.00 79 1019.0
20260901091314 65 327 0.0 0.0 0.00 0.00 0.00 79 1019.0
20260901091017 65 327 0.0 1.0 0.00 0.00 0.00 78 1019.1
20260901090710 65 327 0.0 1.0 0.00 0.00 0.00 79 1019.0
20260901090404 65 327 0.0 1.0 0.00 0.00 0.00 78 1019.1
20260901085339 66 327 0.0 0.0 0.00 0.00 0.00 77 1019.2
20260901085029 66 327 0.0 0.0 0.00 0.00 0.00 76 1019.2
20260901084718 66 327 0.0 0.0 0.00 0.00 0.00 76 1019.2
20260901084419 66 327 0.0 0.0 0.00 0.00 0.00 76 1019.2
20260901084121 67 327 0.0 0.0 0.00 0.00 0.00 75 1019.2
20260901083820 67 327 0.0 0.0 0.00 0.00 0.00 75 1019.2
20260901083511 67 327 0.0 4.0 0.00 0.00 0.00 75 1019.2
20260901082744 67 327 0.0 2.0 0.00 0.00 0.00 74 1019.4
20260901082027 68 327 0.0 1.0 0.00 0.00 0.00 74 1019.4
20260901081721 68 327 0.0 1.0 0.00 0.00 0.00 74 1019.5
20260901081422 68 327 0.0 1.0 0.00 0.00 0.00 73 1019.5
20260901081121 68 327 0.0 0.0 0.00 0.00 0.00 73 1019.5
20260901080822 69 327 1.0 4.0 0.00 0.00 0.00 73 1019.4
20260901080525 69 327 1.0 4.0 0.00 0.00 0.00 72 1019.4
20260901080226 69 327 1.0 3.0 0.00 0.00 0.00 71 1019.4
20260901075914 69 327 0.0 3.0 0.00 0.00 0.00 70 1019.5
20260901075603 70 327 1.0 3.0 0.00 0.00 0.00 70 1019.6
20260901075256 70 327 1.0 3.0 0.00 0.00 0.00 69 1019.6
20260901074951 70 327 0.0 3.0 0.00 0.00 0.00 69 1019.6
20260901074637 70 327 0.0 2.0 0.00 0.00 0.00 69 1019.7
20260901074326 71 327 1.0 4.0 0.00 0.00 0.00 68 1019.6
20260901074029 71 327 1.0 4.0 0.00 0.00 0.00 68 1019.6
20260901073716 71 327 2.0 4.0 0.00 0.00 0.00 67 1019.6
20260901072948 72 327 3.0 5.0 0.00 0.00 0.00 66 1019.7
20260901072642 72 327 3.0 5.0 0.00 0.00 0.00 66 1019.6
20260901072331 72 327 4.0 8.0 0.00 0.00 0.00 65 1019.8
20260901072031 72 327 3.0 8.0 0.00 0.00 0.00 65 1019.8
20260901071307 72 328 2.0 9.0 0.00 0.00 0.00 65 1019.8
20260901070957 72 328 3.0 9.0 0.00 0.00 0.00 65 1019.6
20260901070643 72 328 4.0 9.0 0.00 0.00 0.00 65 1019.6
20260901065912 71 328 4.0 9.0 0.00 0.00 0.00 66 1019.7
20260901065614 71 329 3.0 7.0 0.00 0.00 0.00 66 1019.6
20260901064427 69 329 6.0 11.0 0.00 0.00 0.00 69 1019.5
20260901064116 69 340 4.0 11.0 0.00 0.00 0.00 69 1019.4
20260901063355 69 11 0.0 1.0 0.00 0.00 0.00 67 1018.7
20260901063048 69 11 0.0 0.0 0.00 0.00 0.00 67 1018.6
20260901062744 69 11 0.0 0.0 0.00 0.00 0.00 67 1018.6
20260901062025 69 11 0.0 3.0 0.00 0.00 0.00 67 1018.6
20260901061714 69 11 0.0 3.0 0.00 0.00 0.00 66 1018.5
20260901061406 69 11 0.0 3.0 0.00 0.00 0.00 66 1018.4
20260901061054 69 11 1.0 3.0 0.00 0.00 0.00 65 1018.5
20260901060751 70 11 0.0 3.0 0.00 0.00 0.00 65 1018.4
20260901060441 70 11 0.0 2.0 0.00 0.00 0.00 63 1018.4
20260901055711 71 11 0.0 0.0 0.00 0.00 0.00 63 1018.3
20260901055405 71 11 0.0 0.0 0.00 0.00 0.00 62 1018.2
20260901055107 71 11 0.0 0.0 0.00 0.00 0.00 62 1018.3
20260901054808 71 11 0.0 0.0 0.00 0.00 0.00 62 1018.3
20260901054040 72 11 0.0 1.0 0.00 0.00 0.00 61 1018.3
20260901053324 72 11 0.0 0.0 0.00 0.00 0.00 61 1018.1
20260901052551 72 11 0.0 5.0 0.00 0.00 0.00 61 1018.1
20260901052255 72 11 1.0 5.0 0.00 0.00 0.00 61 1018.0
20260901051944 73 11 2.0 5.0 0.00 0.00 0.00 61 1017.9
20260901051637 73 11 2.0 5.0 0.00 0.00 0.00 61 1017.8
20260901051333 72 11 2.0 5.0 0.00 0.00 0.00 61 1017.9
20260901051036 72 11 1.0 5.0 0.00 0.00 0.00 62 1017.7
20260901050722 72 11 0.0 3.0 0.00 0.00 0.00 62 1017.7
20260901045236 73 11 0.0 2.0 0.00 0.00 0.00 61 1017.6
20260901044932 73 11 0.0 4.0 0.00 0.00 0.00 61 1017.6
20260901044632 73 11 1.0 4.0 0.00 0.00 0.00 60 1017.6
20260901044328 73 11 1.0 4.0 0.00 0.00 0.00 60 1017.7
20260901044019 74 11 1.0 4.0 0.00 0.00 0.00 60 1017.7
20260901043711 74 11 1.0 4.0 0.00 0.00 0.00 60 1017.6
20260901043411 74 11 2.0 4.0 0.00 0.00 0.00 59 1017.6
20260901043108 74 11 2.0 4.0 0.00 0.00 0.00 59 1017.7
20260901042343 75 11 2.0 6.0 0.00 0.00 0.00 59 1017.7
20260901042042 75 11 2.0 6.0 0.00 0.00 0.00 59 1017.7
20260901041730 75 11 3.0 10.0 0.00 0.00 0.00 58 1017.6
20260901041433 75 11 4.0 10.0 0.00 0.00 0.00 58 1017.6
20260901041123 75 11 4.0 10.0 0.00 0.00 0.00 58 1017.5
20260901040811 75 11 5.0 10.0 0.00 0.00 0.00 58 1017.5
20260901040458 75 11 6.0 10.0 0.00 0.00 0.00 58 1017.6
20260901040156 76 11 5.0 10.0 0.00 0.00 0.00 58 1017.7
20260901035853 76 10 5.0 10.0 0.00 0.00 0.00 58 1017.8
20260901035550 76 5 4.0 9.0 0.00 0.00 0.00 58 1017.8
20260901035237 76 0 5.0 7.0 0.00 0.00 0.00 59 1017.8
20260901034933 76 0 5.0 10.0 0.00 0.00 0.00 59 1018.0
20260901034631 76 0 5.0 10.0 0.00 0.00 0.00 59 1018.0
20260901034325 76 0 6.0 10.0 0.00 0.00 0.00 59 1018.0
20260901034016 76 0 6.0 14.0 0.00 0.00 0.00 59 1018.1
20260901033237 76 0 8.0 14.0 0.00 0.00 0.00 60 1017.9
20260901032520 75 0 11.0 20.0 0.00 0.00 0.00 62 1017.7
20260901032224 75 5 12.0 20.0 0.00 0.00 0.00 63 1017.7
20260901031919 75 10 13.0 20.0 0.00 0.00 0.00 63 1017.7
20260901031621 75 0 13.0 20.0 0.00 0.00 0.00 64 1017.8
20260901030841 75 351 12.0 20.0 0.00 0.00 0.00 63 1018.0
20260901030529 75 348 12.0 20.0 0.00 0.00 0.00 63 1018.2
20260901030230 75 336 11.0 20.0 0.00 0.00 0.00 62 1018.3
20260901025918 75 338 11.0 20.0 0.00 0.00 0.00 61 1018.5
20260901025606 75 340 11.0 19.0 0.00 0.00 0.00 62 1018.6
20260901025256 74 339 12.0 19.0 0.00 0.00 0.00 63 1018.6
20260901024532 73 337 10.0 20.0 0.00 0.00 0.00 69 1018.6
20260901024223 73 340 11.0 20.0 0.00 0.00 0.00 70 1018.6
20260901023441 74 328 12.0 27.0 0.00 0.00 0.00 69 1018.9
20260901023143 74 324 12.0 27.0 0.00 0.00 0.00 68 1018.9
20260901022000 76 323 14.0 27.0 0.00 0.00 0.00 63 1018.9
20260901021659 76 321 14.0 25.0 0.00 0.00 0.00 63 1018.8
20260901021355 76 319 15.0 28.0 0.00 0.00 0.00 65 1018.9
20260901020207 76 309 15.0 28.0 0.00 0.00 0.00 66 1018.6
20260901015910 76 312 10.0 28.0 0.00 0.00 0.00 64 1018.5
20260901014715 80 98 0.0 0.0 0.00 0.00 0.00 57 1017.6
20260901013950 81 98 0.0 0.0 0.00 0.00 0.00 56 1017.1
20260901013648 82 98 0.0 0.0 0.00 0.00 0.00 55 1016.7
20260901013348 82 98 0.0 0.0 0.00 0.00 0.00 54 1016.5
20260901013050 83 98 0.0 0.0 0.00 0.00 0.00 53 1016.3
20260901012739 83 98 0.0 0.0 0.00 0.00 0.00 51 1016.3
20260901012427 83 98 0.0 0.0 0.00 0.00 0.00 50 1016.3
20260901012115 84 98 0.0 0.0 0.00 0.00 0.00 51 1016.2
20260901011803 84 98 0.0 0.0 0.00 0.00 0.00 51 1016.2
20260901011455 84 98 0.0 0.0 0.00 0.00 0.00 50 1015.9
20260901011142 84 98 0.0 3.0 0.00 0.00 0.00 50 1015.8
20260901010842 85 98 1.0 5.0 0.00 0.00 0.00 50 1015.9
20260901010116 85 98 2.0 5.0 0.00 0.00 0.00 49 1015.7
20260901005817 86 98 2.0 5.0 0.00 0.00 0.00 48 1015.7
20260901005513 86 98 2.0 5.0 0.00 0.00 0.00 48 1015.7
20260901004759 87 98 2.0 4.0 0.00 0.00 0.00 47 1015.7
20260901004501 87 98 1.0 4.0 0.00 0.00 0.00 47 1015.8
20260901004153 87 98 1.0 6.0 0.00 0.00 0.00 47 1015.8
20260901003849 88 98 2.0 6.0 0.00 0.00 0.00 47 1015.8
20260901003115 88 98 3.0 8.0 0.00 0.00 0.00 46 1015.6
20260901002342 88 98 5.0 8.0 0.00 0.00 0.00 46 1015.5
20260901002038 89 98 5.0 8.0 0.00 0.00 0.00 46 1015.5
20260901001733 89 98 4.0 8.0 0.00 0.00 0.00 45 1015.5
20260901001425 89 98 4.0 7.0 0.00 0.00 0.00 45 1015.5
20260901001127 89 98 4.0 8.0 0.00 0.00 0.00 45 1015.5
20260901000831 89 98 3.0 8.0 0.00 0.00 0.00 44 1015.5
20260831235706 90 98 3.0 8.0 0.00 0.00 0.00 42 1015.5
20260831235403 90 98 3.0 8.0 0.00 0.00 0.00 41 1015.5
20260831234637 91 98 2.0 5.0 0.00 0.00 0.00 40 1015.5
20260831233901 91 98 2.0 9.0 0.00 0.00 0.00 38 1015.4
20260831233125 92 98 4.0 10.0 0.00 0.00 0.00 38 1015.3
20260831232829 92 98 4.0 10.0 0.00 0.00 0.00 38 1015.2
20260831232518 93 98 3.0 10.0 0.00 0.00 0.00 39 1015.3
20260831232206 93 98 3.0 10.0 0.00 0.00 0.00 38 1015.2
20260831231901 93 98 4.0 10.0 0.00 0.00 0.00 39 1015.3
20260831231550 93 98 4.0 10.0 0.00 0.00 0.00 38 1015.2
20260831231239 94 96 4.0 10.0 0.00 0.00 0.00 39 1015.2
20260831230524 94 96 5.0 10.0 0.00 0.00 0.00 38 1015.2
20260831225749 94 94 3.0 10.0 0.00 0.00 0.00 38 1015.2
20260831225446 94 85 3.0 8.0 0.00 0.00 0.00 39 1015.3
20260831225139 94 85 4.0 8.0 0.00 0.00 0.00 39 1015.2
20260831224840 94 85 4.0 9.0 0.00 0.00 0.00 39 1015.3
20260831224532 93 84 4.0 9.0 0.00 0.00 0.00 40 1015.3
20260831223803 93 84 4.0 9.0 0.00 0.00 0.00 39 1015.2
20260831223502 94 84 4.0 9.0 0.00 0.00 0.00 39 1015.4
20260831223155 94 84 4.0 9.0 0.00 0.00 0.00 39 1015.4
20260831222847 94 84 4.0 9.0 0.00 0.00 0.00 40 1015.5
20260831222545 93 84 4.0 10.0 0.00 0.00 0.00 40 1015.4
20260831221820 93 83 5.0 10.0 0.00 0.00 0.00 41 1015.5
20260831221517 93 83 5.0 11.0 0.00 0.00 0.00 41 1015.6
20260831220758 94 83 4.0 11.0 0.00 0.00 0.00 39 1015.5
20260831220459 94 82 4.0 11.0 0.00 0.00 0.00 40 1015.5
20260831220148 94 82 5.0 11.0 0.00 0.00 0.00 41 1015.5
20260831215837 94 83 5.0 11.0 0.00 0.00 0.00 40 1015.6
20260831215535 94 76 4.0 9.0 0.00 0.00 0.00 39 1015.6
20260831215234 95 76 4.0 9.0 0.00 0.00 0.00 38 1015.7
20260831214924 95 74 4.0 9.0 0.00 0.00 0.00 38 1015.7
20260831214624 96 72 4.0 9.0 0.00 0.00 0.00 38 1015.8
20260831214326 96 71 4.0 9.0 0.00 0.00 0.00 39 1015.8
20260831214026 96 70 4.0 9.0 0.00 0.00 0.00 38 1015.8
20260831213720 96 70 4.0 9.0 0.00 0.00 0.00 39 1015.8
20260831213410 96 70 2.0 10.0 0.00 0.00 0.00 39 1015.7
20260831213104 96 70 1.0 10.0 0.00 0.00 0.00 39 1015.7
20260831212756 95 70 1.0 10.0 0.00 0.00 0.00 37 1015.9
20260831212452 95 70 3.0 10.0 0.00 0.00 0.00 38 1015.9
20260831211729 95 70 4.0 10.0 0.00 0.00 0.00 37 1016.0
20260831211427 95 67 3.0 10.0 0.00 0.00 0.00 38 1015.9
20260831211114 95 67 3.0 10.0 0.00 0.00 0.00 37 1016.1
20260831210810 95 67 4.0 10.0 0.00 0.00 0.00 36 1016.1
20260831210504 96 67 5.0 10.0 0.00 0.00 0.00 37 1016.2
20260831205752 96 63 4.0 11.0 0.00 0.00 0.00 38 1016.1